This is the latest recevied weather packets stored in our database for station/object KO6LQK. If no packets are shown the sender has not sent any weather packets the latest 10 day(s).
| Time | Temp. | Humidity | Pressure | Rain* | Wind** | Luminosity | Snow |
|---|---|---|---|---|---|---|---|
| 1788320478 | 21.67° C | 18% | 1021.4 hPa | 0 mm | - | 0 W/m² | - |
| 1788320178 | 21.11° C | 19% | 1021.7 hPa | 0 mm | - | 0 W/m² | - |
| 1788319873 | 21.67° C | 19% | 1021.5 hPa | 0 mm | - | 0 W/m² | - |
| 1788319572 | 21.67° C | 18% | 1021.1 hPa | 0 mm | - | 0 W/m² | - |
| 1788319267 | 21.67° C | 19% | 1021.2 hPa | 0 mm | - | 0 W/m² | - |
| 1788318967 | 21.67° C | 19% | 1021.1 hPa | 0 mm | - | 0 W/m² | - |
| 1788318663 | 21.67° C | 19% | 1021 hPa | 0 mm | - | 0 W/m² | - |
| 1788318358 | 22.22° C | 18% | 1020.9 hPa | 0 mm | - | 0 W/m² | - |
| 1788318058 | 22.22° C | 18% | 1021 hPa | 0 mm | - | 0 W/m² | - |
| 1788317757 | 22.22° C | 18% | 1021 hPa | 0 mm | - | 0 W/m² | - |
| 1788317453 | 22.78° C | 18% | 1021 hPa | 0 mm | - | 0 W/m² | - |
| 1788317149 | 22.78° C | 18% | 1020.8 hPa | 0 mm | - | 0 W/m² | - |
| 1788316848 | 22.78° C | 17% | 1020.6 hPa | 0 mm | - | 0 W/m² | - |
| 1788316544 | 23.33° C | 17% | 1020.6 hPa | 0 mm | - | 0 W/m² | - |
| 1788316239 | 23.33° C | 17% | 1020.6 hPa | 0 mm | - | 1 W/m² | - |
| 1788315933 | 23.33° C | 17% | 1020.6 hPa | 0 mm | - | 2 W/m² | - |
| 1788315629 | 23.89° C | 17% | 1020.5 hPa | 0 mm | - | 4 W/m² | - |
| 1788315324 | 23.89° C | 17% | 1020.6 hPa | 0 mm | - | 6 W/m² | - |
| 1788315019 | 23.89° C | 17% | 1020.6 hPa | 0 mm | - | 10 W/m² | - |
| 1788314715 | 24.44° C | 17% | 1020.4 hPa | 0 mm | - | 15 W/m² | - |
| 1788314411 | 24.44° C | 17% | 1020.5 hPa | 0 mm | - | 17 W/m² | - |
| 1788314112 | 24.44° C | 17% | 1020.4 hPa | 0 mm | - | 22 W/m² | - |
| 1788313807 | 25° C | 17% | 1020.1 hPa | 0 mm | - | 24 W/m² | - |
| 1788313503 | 25° C | 17% | 1020.2 hPa | 0 mm | - | 33 W/m² | - |
| 1788313198 | 25.56° C | 16% | 1020.1 hPa | 0 mm | - | 43 W/m² | - |
* Rain latest hour (hover to see other rain measurements)
** Current wind speed in m/s (hover to see current wind gust speed)